Location: Stagg River
(62.7445°N, 115.7274°W)
Time: 15:12:36
(UTC-06:00)

Envisat - Visible Passes

Search period start: 19 October 2019 00:00
Search period end: 29 October 2019 00:00
Orbit: 764 x 766 km, 98.1° (Epoch: 19 October)

Date Brightness Start Highest point End Pass type
(mag) Time Alt. Az. Time Alt. Az. Time Alt. Az.
19 Oct 5.9 07:29:04 10° NE 07:32:53 21° E 07:36:42 10° SE visible
19 Oct 3.0 18:54:23 10° SSE 18:59:28 73° ENE 19:04:34 10° NNW visible
19 Oct 5.0 20:34:30 10° SSW 20:38:59 31° W 20:43:30 10° NNW visible
20 Oct 6.3 06:53:17 10° NE 06:55:29 13° ENE 06:57:40 10° ESE visible
20 Oct 4.0 19:56:57 10° S 20:01:54 50° W 20:06:53 10° NNW visible
20 Oct 6.1 21:39:45 10° WSW 21:42:12 13° WNW 21:44:39 10° NW visible
21 Oct 5.4 07:54:17 10° NNE 07:58:44 29° E 08:03:08 10° SSE visible
21 Oct 3.2 19:19:53 10° SSE 19:24:59 81° WSW 19:30:07 10° NNW visible
21 Oct 5.5 21:00:53 10° SW 21:04:48 22° W 21:08:45 10° NW visible
22 Oct 6.0 07:17:59 10° NE 07:21:28 18° E 07:24:54 10° SE visible
22 Oct 3.0 18:43:12 10° SE 18:48:13 64° ENE 18:53:17 10° NNW visible
22 Oct 4.7 20:22:57 10° SSW 20:27:36 35° W 20:32:18 10° NNW visible
23 Oct 6.5 06:42:49 10° ENE 06:44:00 11° ENE 06:45:10 10° E visible
23 Oct 3.7 19:45:33 10° S 19:50:34 58° WSW 19:55:38 10° NNW visible
23 Oct 6.0 21:27:43 10° WSW 21:30:44 16° W 21:33:45 10° NW visible
24 Oct 5.6 07:43:08 10° NNE 07:47:20 25° E 07:51:32 10° SE visible
24 Oct 3.0 19:08:36 10° SSE 19:13:42 88° ENE 19:18:50 10° NNW visible
24 Oct 5.3 20:49:13 10° SW 20:53:24 25° W 20:57:37 10° NNW visible
25 Oct 6.1 07:06:58 10° NE 07:10:01 16° E 07:13:01 10° ESE visible
25 Oct 4.4 20:11:27 10° SSW 20:16:15 41° W 20:21:04 10° NNW visible
25 Oct 6.3 21:55:36 10° W 21:56:44 11° WNW 21:57:53 10° WNW visible
26 Oct 4.9 08:08:26 10° NNE 08:13:08 35° E 08:17:47 10° SSE visible
26 Oct 3.4 19:34:12 10° S 19:39:16 67° WSW 19:44:22 10° NNW visible
26 Oct 5.8 21:15:50 10° SW 21:19:17 18° W 21:22:44 10° NW visible
27 Oct 5.8 07:31:58 10° NE 07:35:55 22° E 07:39:51 10° SE visible
27 Oct 3.0 18:57:21 10° SSE 19:02:26 77° ENE 19:07:33 10° NNW visible
27 Oct 5.0 20:37:35 10° SSW 20:42:00 29° W 20:46:26 10° NNW visible
28 Oct 6.2 06:56:04 10° NE 06:58:32 13° ENE 07:01:00 10° ESE visible
28 Oct 4.1 20:00:00 10° S 20:04:54 47° W 20:09:50 10° NNW visible
28 Oct 6.1 21:43:05 10° WSW 21:45:15 13° WNW 21:47:26 10° NW visible
